owner,sensor,date,latitude,longitude,vertical_datum,sea_water_practical_salinity,qcFlag 
NERRS,ioos:station:NOAA.NERRS:gndpcwq:1,2014-11-01T00:00:00Z,30.3486,-88.4185,1.23,31.0,1111122 
NERRS,ioos:station:NOAA.NERRS:gndpcwq:1,2014-11-01T01:00:00Z,30.3486,-88.4185,1.22,31.0,1111122 
NERRS,ioos:station:NOAA.NERRS:gndpcwq:1,2014-11-01T02:00:00Z,30.3486,-88.4185,1.2,31.0,1111122 
NERRS,ioos:station:NOAA.NERRS:gndpcwq:1,2014-11-01T03:00:00Z,30.3486,-88.4185,1.17,31.0,1111122 
NERRS,ioos:station:NOAA.NERRS:gndpcwq:1,2014-11-01T04:00:00Z,30.3486,-88.4185,1.15,31.2,1111122 
NERRS,ioos:station:NOAA.NERRS:gndpcwq:1,2014-11-01T05:00:00Z,30.3486,-88.4185,1.14,31.2,1111122 
NERRS,ioos:station:NOAA.NERRS:gndpcwq:1,2014-11-01T06:00:00Z,30.3486,-88.4185,1.15,31.0,1111122 
NERRS,ioos:station:NOAA.NERRS:gndpcwq:1,2014-11-01T07:00:00Z,30.3486,-88.4185,1.13,31.0,1111122 
NERRS,ioos:station:NOAA.NERRS:gndpcwq:1,2014-11-01T08:00:00Z,30.3486,-88.4185,1.08,31.0,1111122 
NERRS,ioos:station:NOAA.NERRS:gndpcwq:1,2014-11-01T09:00:00Z,30.3486,-88.4185,1.16,31.0,1111122 
NERRS,ioos:station:NOAA.NERRS:gndpcwq:1,2014-11-01T10:00:00Z,30.3486,-88.4185,1.23,31.3,1111122 
NERRS,ioos:station:NOAA.NERRS:gndpcwq:1,2014-11-01T11:00:00Z,30.3486,-88.4185,1.24,31.5,1111122 
NERRS,ioos:station:NOAA.NERRS:gndpcwq:1,2014-11-01T12:00:00Z,30.3486,-88.4185,1.25,31.5,1111122 
NERRS,ioos:station:NOAA.NERRS:gndpcwq:1,2014-11-01T13:00:00Z,30.3486,-88.4185,1.27,31.3,1111122 
NERRS,ioos:station:NOAA.NERRS:gndpcwq:1,2014-11-01T14:00:00Z,30.3486,-88.4185,1.24,31.5,1111122 
NERRS,ioos:station:NOAA.NERRS:gndpcwq:1,2014-11-01T15:00:00Z,30.3486,-88.4185,1.27,31.5,1111122 
NERRS,ioos:station:NOAA.NERRS:gndpcwq:1,2014-11-01T16:00:00Z,30.3486,-88.4185,1.25,31.4,1111122 
NERRS,ioos:station:NOAA.NERRS:gndpcwq:1,2014-11-01T17:00:00Z,30.3486,-88.4185,1.21,31.4,1111122 
NERRS,ioos:station:NOAA.NERRS:gndpcwq:1,2014-11-01T18:00:00Z,30.3486,-88.4185,1.19,31.6,1111122 
NERRS,ioos:station:NOAA.NERRS:gndpcwq:1,2014-11-01T19:00:00Z,30.3486,-88.4185,1.18,32.0,1111122 
NERRS,ioos:station:NOAA.NERRS:gndpcwq:1,2014-11-01T20:00:00Z,30.3486,-88.4185,1.17,32.3,1111122 
NERRS,ioos:station:NOAA.NERRS:gndpcwq:1,2014-11-01T21:00:00Z,30.3486,-88.4185,1.13,32.5,1111122 
NERRS,ioos:station:NOAA.NERRS:gndpcwq:1,2014-11-01T22:00:00Z,30.3486,-88.4185,1.16,32.5,1111122 
NERRS,ioos:station:NOAA.NERRS:gndpcwq:1,2014-11-01T23:00:00Z,30.3486,-88.4185,1.16,32.5,1111122 
NERRS,ioos:station:NOAA.NERRS:gndpcwq:1,2014-11-02T00:00:00Z,30.3486,-88.4185,1.2,32.6,1111122 
NERRS,ioos:station:NOAA.NERRS:gndpcwq:1,2014-11-02T01:00:00Z,30.3486,-88.4185,1.25,32.7,1111122 
NERRS,ioos:station:NOAA.NERRS:gndpcwq:1,2014-11-02T02:00:00Z,30.3486,-88.4185,1.27,32.8,1111122 
NERRS,ioos:station:NOAA.NERRS:gndpcwq:1,2014-11-02T03:00:00Z,30.3486,-88.4185,1.24,33.0,1111122 
NERRS,ioos:station:NOAA.NERRS:gndpcwq:1,2014-11-02T04:00:00Z,30.3486,-88.4185,1.23,33.1,1111122 
NERRS,ioos:station:NOAA.NERRS:gndpcwq:1,2014-11-02T05:00:00Z,30.3486,-88.4185,1.21,33.2,1111122 
NERRS,ioos:station:NOAA.NERRS:gndpcwq:1,2014-11-02T06:00:00Z,30.3486,-88.4185,1.17,33.2,1111122 
NERRS,ioos:station:NOAA.NERRS:gndpcwq:1,2014-11-02T08:00:00Z,30.3486,-88.4185,1.15,33.1,1111122 
NERRS,ioos:station:NOAA.NERRS:gndpcwq:1,2014-11-02T09:00:00Z,30.3486,-88.4185,1.18,33.2,1111122 
NERRS,ioos:station:NOAA.NERRS:gndpcwq:1,2014-11-02T10:00:00Z,30.3486,-88.4185,1.25,32.8,1111122 
NERRS,ioos:station:NOAA.NERRS:gndpcwq:1,2014-11-02T11:00:00Z,30.3486,-88.4185,1.28,32.6,1111122 
NERRS,ioos:station:NOAA.NERRS:gndpcwq:1,2014-11-02T12:00:00Z,30.3486,-88.4185,1.33,32.5,1111122 
NERRS,ioos:station:NOAA.NERRS:gndpcwq:1,2014-11-02T13:00:00Z,30.3486,-88.4185,1.34,32.9,1111122 
NERRS,ioos:station:NOAA.NERRS:gndpcwq:1,2014-11-02T14:00:00Z,30.3486,-88.4185,1.37,33.0,1111122 
NERRS,ioos:station:NOAA.NERRS:gndpcwq:1,2014-11-02T15:00:00Z,30.3486,-88.4185,1.38,33.2,1111122 
NERRS,ioos:station:NOAA.NERRS:gndpcwq:1,2014-11-02T16:00:00Z,30.3486,-88.4185,1.38,33.2,1111122 
NERRS,ioos:station:NOAA.NERRS:gndpcwq:1,2014-11-02T16:15:00Z,30.3486,-88.4185,1.37,33.2,1111122 
NERRS,ioos:station:NOAA.NERRS:gndpcwq:1,2014-11-02T17:00:00Z,30.3486,-88.4185,1.3,32.9,1111122 
NERRS,ioos:station:NOAA.NERRS:gndpcwq:1,2014-11-02T18:00:00Z,30.3486,-88.4185,1.27,32.7,1111122 
NERRS,ioos:station:NOAA.NERRS:gndpcwq:1,2014-11-02T19:00:00Z,30.3486,-88.4185,1.23,32.6,1111122 
NERRS,ioos:station:NOAA.NERRS:gndpcwq:1,2014-11-02T20:00:00Z,30.3486,-88.4185,1.22,32.6,1111122 
NERRS,ioos:station:NOAA.NERRS:gndpcwq:1,2014-11-02T21:00:00Z,30.3486,-88.4185,1.26,32.7,1111122 
NERRS,ioos:station:NOAA.NERRS:gndpcwq:1,2014-11-02T22:00:00Z,30.3486,-88.4185,1.3,32.8,1111122 
NERRS,ioos:station:NOAA.NERRS:gndpcwq:1,2014-11-02T23:00:00Z,30.3486,-88.4185,1.34,32.9,1111122 
NERRS,ioos:station:NOAA.NERRS:gndpcwq:1,2014-11-03T00:00:00Z,30.3486,-88.4185,1.34,32.9,1111122 
NERRS,ioos:station:NOAA.NERRS:gndpcwq:1,2014-11-03T01:00:00Z,30.3486,-88.4185,1.34,32.9,1111122 
NERRS,ioos:station:NOAA.NERRS:gndpcwq:1,2014-11-03T02:00:00Z,30.3486,-88.4185,1.34,32.8,1111122 
NERRS,ioos:station:NOAA.NERRS:gndpcwq:1,2014-11-03T03:00:00Z,30.3486,-88.4185,1.35,32.9,1111122 
NERRS,ioos:station:NOAA.NERRS:gndpcwq:1,2014-11-03T04:00:00Z,30.3486,-88.4185,1.36,33.0,1111122 
NERRS,ioos:station:NOAA.NERRS:gndpcwq:1,2014-11-03T05:00:00Z,30.3486,-88.4185,1.33,33.0,1111122 
NERRS,ioos:station:NOAA.NERRS:gndpcwq:1,2014-11-03T06:00:00Z,30.3486,-88.4185,1.28,32.9,1111122 
NERRS,ioos:station:NOAA.NERRS:gndpcwq:1,2014-11-03T07:00:00Z,30.3486,-88.4185,1.25,32.8,1111122 
NERRS,ioos:station:NOAA.NERRS:gndpcwq:1,2014-11-03T08:00:00Z,30.3486,-88.4185,1.25,32.8,1111122 
NERRS,ioos:station:NOAA.NERRS:gndpcwq:1,2014-11-03T09:00:00Z,30.3486,-88.4185,1.28,32.8,1111122 
NERRS,ioos:station:NOAA.NERRS:gndpcwq:1,2014-11-03T10:00:00Z,30.3486,-88.4185,1.29,32.9,1111122 
NERRS,ioos:station:NOAA.NERRS:gndpcwq:1,2014-11-03T11:00:00Z,30.3486,-88.4185,1.32,32.9,1111122 
NERRS,ioos:station:NOAA.NERRS:gndpcwq:1,2014-11-03T12:00:00Z,30.3486,-88.4185,1.32,33.1,1111122 
NERRS,ioos:station:NOAA.NERRS:gndpcwq:1,2014-11-03T13:00:00Z,30.3486,-88.4185,1.34,33.1,1111122 
NERRS,ioos:station:NOAA.NERRS:gndpcwq:1,2014-11-03T14:00:00Z,30.3486,-88.4185,1.38,33.2,1111122 
NERRS,ioos:station:NOAA.NERRS:gndpcwq:1,2014-11-03T15:00:00Z,30.3486,-88.4185,1.43,33.0,1111122 
NERRS,ioos:station:NOAA.NERRS:gndpcwq:1,2014-11-03T16:00:00Z,30.3486,-88.4185,1.46,32.9,1111122 
NERRS,ioos:station:NOAA.NERRS:gndpcwq:1,2014-11-03T17:00:00Z,30.3486,-88.4185,1.44,32.9,1111122 
NERRS,ioos:station:NOAA.NERRS:gndpcwq:1,2014-11-03T18:00:00Z,30.3486,-88.4185,1.39,33.2,1111122 
NERRS,ioos:station:NOAA.NERRS:gndpcwq:1,2014-11-03T19:00:00Z,30.3486,-88.4185,1.35,33.1,1111122 
NERRS,ioos:station:NOAA.NERRS:gndpcwq:1,2014-11-03T20:00:00Z,30.3486,-88.4185,1.38,32.9,1111122 
NERRS,ioos:station:NOAA.NERRS:gndpcwq:1,2014-11-03T21:00:00Z,30.3486,-88.4185,1.41,33.0,1111122 
NERRS,ioos:station:NOAA.NERRS:gndpcwq:1,2014-11-03T22:00:00Z,30.3486,-88.4185,1.45,33.0,1111122 
NERRS,ioos:station:NOAA.NERRS:gndpcwq:1,2014-11-03T23:00:00Z,30.3486,-88.4185,1.47,33.0,1111122 
NERRS,ioos:station:NOAA.NERRS:gndpcwq:1,2014-11-04T00:00:00Z,30.3486,-88.4185,1.5,32.9,1111122 
NERRS,ioos:station:NOAA.NERRS:gndpcwq:1,2014-11-04T01:00:00Z,30.3486,-88.4185,1.51,32.9,1111122 
NERRS,ioos:station:NOAA.NERRS:gndpcwq:1,2014-11-04T02:00:00Z,30.3486,-88.4185,1.52,32.9,1111122 
NERRS,ioos:station:NOAA.NERRS:gndpcwq:1,2014-11-04T03:00:00Z,30.3486,-88.4185,1.53,32.8,1111122 
NERRS,ioos:station:NOAA.NERRS:gndpcwq:1,2014-11-04T04:00:00Z,30.3486,-88.4185,1.53,32.8,1111122 
NERRS,ioos:station:NOAA.NERRS:gndpcwq:1,2014-11-04T05:00:00Z,30.3486,-88.4185,1.5,32.8,1111122 
NERRS,ioos:station:NOAA.NERRS:gndpcwq:1,2014-11-04T06:00:00Z,30.3486,-88.4185,1.45,32.9,1111122 
NERRS,ioos:station:NOAA.NERRS:gndpcwq:1,2014-11-04T07:00:00Z,30.3486,-88.4185,1.4,32.9,1111122 
NERRS,ioos:station:NOAA.NERRS:gndpcwq:1,2014-11-04T08:00:00Z,30.3486,-88.4185,1.36,32.6,1111122 
NERRS,ioos:station:NOAA.NERRS:gndpcwq:1,2014-11-04T09:00:00Z,30.3486,-88.4185,1.36,32.7,1111122 
NERRS,ioos:station:NOAA.NERRS:gndpcwq:1,2014-11-04T10:00:00Z,30.3486,-88.4185,1.36,32.7,1111122 
NERRS,ioos:station:NOAA.NERRS:gndpcwq:1,2014-11-04T11:00:00Z,30.3486,-88.4185,1.37,32.7,1111122 
NERRS,ioos:station:NOAA.NERRS:gndpcwq:1,2014-11-04T12:00:00Z,30.3486,-88.4185,1.37,32.6,1111122 
NERRS,ioos:station:NOAA.NERRS:gndpcwq:1,2014-11-04T13:00:00Z,30.3486,-88.4185,1.39,32.6,1111122 
NERRS,ioos:station:NOAA.NERRS:gndpcwq:1,2014-11-04T14:00:00Z,30.3486,-88.4185,1.41,32.5,1111122 
NERRS,ioos:station:NOAA.NERRS:gndpcwq:1,2014-11-04T15:00:00Z,30.3486,-88.4185,1.44,32.5,1111122 
NERRS,ioos:station:NOAA.NERRS:gndpcwq:1,2014-11-04T16:00:00Z,30.3486,-88.4185,1.47,32.6,1111122 
NERRS,ioos:station:NOAA.NERRS:gndpcwq:1,2014-11-04T17:00:00Z,30.3486,-88.4185,1.5,32.5,1111122 
NERRS,ioos:station:NOAA.NERRS:gndpcwq:1,2014-11-04T18:00:00Z,30.3486,-88.4185,1.5,32.4,1111122 
NERRS,ioos:station:NOAA.NERRS:gndpcwq:1,2014-11-04T19:00:00Z,30.3486,-88.4185,1.47,32.4,1111122 
NERRS,ioos:station:NOAA.NERRS:gndpcwq:1,2014-11-04T20:00:00Z,30.3486,-88.4185,1.47,32.3,1111122 
NERRS,ioos:station:NOAA.NERRS:gndpcwq:1,2014-11-04T21:00:00Z,30.3486,-88.4185,1.48,32.2,1111122 
NERRS,ioos:station:NOAA.NERRS:gndpcwq:1,2014-11-04T22:00:00Z,30.3486,-88.4185,1.56,32.2,1111122 
NERRS,ioos:station:NOAA.NERRS:gndpcwq:1,2014-11-04T23:00:00Z,30.3486,-88.4185,1.6,32.2,1111122 
NERRS,ioos:station:NOAA.NERRS:gndpcwq:1,2014-11-05T00:00:00Z,30.3486,-88.4185,1.63,32.2,1111122 
NERRS,ioos:station:NOAA.NERRS:gndpcwq:1,2014-11-05T01:00:00Z,30.3486,-88.4185,1.64,32.2,1111122 
NERRS,ioos:station:NOAA.NERRS:gndpcwq:1,2014-11-05T02:00:00Z,30.3486,-88.4185,1.65,32.2,1111122 
NERRS,ioos:station:NOAA.NERRS:gndpcwq:1,2014-11-05T03:00:00Z,30.3486,-88.4185,1.66,32.2,1111122 
NERRS,ioos:station:NOAA.NERRS:gndpcwq:1,2014-11-05T04:00:00Z,30.3486,-88.4185,1.66,32.1,1111122 
NERRS,ioos:station:NOAA.NERRS:gndpcwq:1,2014-11-05T05:00:00Z,30.3486,-88.4185,1.63,31.8,1111122 
NERRS,ioos:station:NOAA.NERRS:gndpcwq:1,2014-11-05T06:00:00Z,30.3486,-88.4185,1.57,31.7,1111122 
NERRS,ioos:station:NOAA.NERRS:gndpcwq:1,2014-11-05T07:00:00Z,30.3486,-88.4185,1.48,31.7,1111122 
NERRS,ioos:station:NOAA.NERRS:gndpcwq:1,2014-11-05T08:00:00Z,30.3486,-88.4185,1.4,31.6,1111122 
NERRS,ioos:station:NOAA.NERRS:gndpcwq:1,2014-11-05T09:00:00Z,30.3486,-88.4185,1.34,32.1,1111122 
NERRS,ioos:station:NOAA.NERRS:gndpcwq:1,2014-11-05T10:00:00Z,30.3486,-88.4185,1.32,32.2,1111122 
NERRS,ioos:station:NOAA.NERRS:gndpcwq:1,2014-11-05T11:00:00Z,30.3486,-88.4185,1.33,32.1,1111122 
NERRS,ioos:station:NOAA.NERRS:gndpcwq:1,2014-11-05T12:00:00Z,30.3486,-88.4185,1.35,32.0,1111122 
NERRS,ioos:station:NOAA.NERRS:gndpcwq:1,2014-11-05T13:00:00Z,30.3486,-88.4185,1.38,31.9,1111122 
NERRS,ioos:station:NOAA.NERRS:gndpcwq:1,2014-11-05T14:00:00Z,30.3486,-88.4185,1.4,31.9,1111122 
NERRS,ioos:station:NOAA.NERRS:gndpcwq:1,2014-11-05T15:00:00Z,30.3486,-88.4185,1.43,31.8,1111122 
NERRS,ioos:station:NOAA.NERRS:gndpcwq:1,2014-11-05T16:00:00Z,30.3486,-88.4185,1.47,31.9,1111122 
NERRS,ioos:station:NOAA.NERRS:gndpcwq:1,2014-11-05T17:00:00Z,30.3486,-88.4185,1.52,31.9,1111122 
NERRS,ioos:station:NOAA.NERRS:gndpcwq:1,2014-11-05T18:00:00Z,30.3486,-88.4185,1.54,32.0,1111122 
NERRS,ioos:station:NOAA.NERRS:gndpcwq:1,2014-11-05T19:00:00Z,30.3486,-88.4185,1.54,32.0,1111122 
NERRS,ioos:station:NOAA.NERRS:gndpcwq:1,2014-11-05T20:00:00Z,30.3486,-88.4185,1.52,32.0,1111122 
NERRS,ioos:station:NOAA.NERRS:gndpcwq:1,2014-11-05T21:00:00Z,30.3486,-88.4185,1.54,31.9,1111122 
NERRS,ioos:station:NOAA.NERRS:gndpcwq:1,2014-11-05T22:00:00Z,30.3486,-88.4185,1.6,31.9,1111122 
NERRS,ioos:station:NOAA.NERRS:gndpcwq:1,2014-11-05T23:00:00Z,30.3486,-88.4185,1.65,31.8,1111122 
NERRS,ioos:station:NOAA.NERRS:gndpcwq:1,2014-11-06T00:00:00Z,30.3486,-88.4185,1.66,31.8,1111122 
NERRS,ioos:station:NOAA.NERRS:gndpcwq:1,2014-11-06T01:00:00Z,30.3486,-88.4185,1.66,31.7,1111122 
NERRS,ioos:station:NOAA.NERRS:gndpcwq:1,2014-11-06T02:00:00Z,30.3486,-88.4185,1.68,31.8,1111122 
NERRS,ioos:station:NOAA.NERRS:gndpcwq:1,2014-11-06T03:00:00Z,30.3486,-88.4185,1.69,31.8,1111122 
NERRS,ioos:station:NOAA.NERRS:gndpcwq:1,2014-11-06T04:00:00Z,30.3486,-88.4185,1.69,31.8,1111122 
NERRS,ioos:station:NOAA.NERRS:gndpcwq:1,2014-11-06T05:00:00Z,30.3486,-88.4185,1.65,31.8,1111122 
NERRS,ioos:station:NOAA.NERRS:gndpcwq:1,2014-11-06T06:00:00Z,30.3486,-88.4185,1.59,31.8,1111122 
NERRS,ioos:station:NOAA.NERRS:gndpcwq:1,2014-11-06T07:00:00Z,30.3486,-88.4185,1.51,31.6,1111122 
NERRS,ioos:station:NOAA.NERRS:gndpcwq:1,2014-11-06T08:00:00Z,30.3486,-88.4185,1.42,31.8,1111122 
NERRS,ioos:station:NOAA.NERRS:gndpcwq:1,2014-11-06T09:00:00Z,30.3486,-88.4185,1.34,31.7,1111122 
NERRS,ioos:station:NOAA.NERRS:gndpcwq:1,2014-11-06T10:00:00Z,30.3486,-88.4185,1.28,31.7,1111122 
NERRS,ioos:station:NOAA.NERRS:gndpcwq:1,2014-11-06T11:00:00Z,30.3486,-88.4185,1.23,31.8,1111122 
NERRS,ioos:station:NOAA.NERRS:gndpcwq:1,2014-11-06T12:00:00Z,30.3486,-88.4185,1.24,31.8,1111122 
NERRS,ioos:station:NOAA.NERRS:gndpcwq:1,2014-11-06T13:00:00Z,30.3486,-88.4185,1.26,31.8,1111122 
NERRS,ioos:station:NOAA.NERRS:gndpcwq:1,2014-11-06T14:00:00Z,30.3486,-88.4185,1.3,31.8,1111122 
NERRS,ioos:station:NOAA.NERRS:gndpcwq:1,2014-11-06T15:00:00Z,30.3486,-88.4185,1.33,31.8,1111122 
NERRS,ioos:station:NOAA.NERRS:gndpcwq:1,2014-11-06T16:00:00Z,30.3486,-88.4185,1.38,31.7,1111122 
NERRS,ioos:station:NOAA.NERRS:gndpcwq:1,2014-11-06T17:00:00Z,30.3486,-88.4185,1.41,31.7,1111122 
NERRS,ioos:station:NOAA.NERRS:gndpcwq:1,2014-11-06T18:00:00Z,30.3486,-88.4185,1.45,31.7,1111122 
NERRS,ioos:station:NOAA.NERRS:gndpcwq:1,2014-11-06T19:00:00Z,30.3486,-88.4185,1.47,31.4,1111122 
NERRS,ioos:station:NOAA.NERRS:gndpcwq:1,2014-11-06T20:00:00Z,30.3486,-88.4185,1.48,31.1,1111122 
NERRS,ioos:station:NOAA.NERRS:gndpcwq:1,2014-11-06T21:00:00Z,30.3486,-88.4185,1.47,31.1,1111122 
NERRS,ioos:station:NOAA.NERRS:gndpcwq:1,2014-11-06T22:00:00Z,30.3486,-88.4185,1.5,31.1,1111122 
NERRS,ioos:station:NOAA.NERRS:gndpcwq:1,2014-11-06T23:00:00Z,30.3486,-88.4185,1.54,31.1,1111122 
NERRS,ioos:station:NOAA.NERRS:gndpcwq:1,2014-11-07T00:00:00Z,30.3486,-88.4185,1.58,31.2,1111122 
NERRS,ioos:station:NOAA.NERRS:gndpcwq:1,2014-11-07T01:00:00Z,30.3486,-88.4185,1.62,31.3,1111122 
NERRS,ioos:station:NOAA.NERRS:gndpcwq:1,2014-11-07T02:00:00Z,30.3486,-88.4185,1.62,31.3,1111122 
NERRS,ioos:station:NOAA.NERRS:gndpcwq:1,2014-11-07T03:00:00Z,30.3486,-88.4185,1.6,31.3,1111122 
NERRS,ioos:station:NOAA.NERRS:gndpcwq:1,2014-11-07T04:00:00Z,30.3486,-88.4185,1.54,31.3,1111122 
NERRS,ioos:station:NOAA.NERRS:gndpcwq:1,2014-11-07T05:00:00Z,30.3486,-88.4185,1.49,31.4,1111122 
NERRS,ioos:station:NOAA.NERRS:gndpcwq:1,2014-11-07T06:00:00Z,30.3486,-88.4185,1.43,31.5,1111122 
NERRS,ioos:station:NOAA.NERRS:gndpcwq:1,2014-11-07T07:00:00Z,30.3486,-88.4185,1.38,31.6,1111122 
NERRS,ioos:station:NOAA.NERRS:gndpcwq:1,2014-11-07T08:00:00Z,30.3486,-88.4185,1.3,31.7,1111122 
NERRS,ioos:station:NOAA.NERRS:gndpcwq:1,2014-11-07T09:00:00Z,30.3486,-88.4185,1.2,31.8,1111122 
NERRS,ioos:station:NOAA.NERRS:gndpcwq:1,2014-11-07T10:00:00Z,30.3486,-88.4185,1.11,31.8,1111122 
NERRS,ioos:station:NOAA.NERRS:gndpcwq:1,2014-11-07T11:00:00Z,30.3486,-88.4185,1.09,31.9,1111122 
NERRS,ioos:station:NOAA.NERRS:gndpcwq:1,2014-11-07T12:00:00Z,30.3486,-88.4185,1.08,31.9,1111122 
NERRS,ioos:station:NOAA.NERRS:gndpcwq:1,2014-11-07T13:00:00Z,30.3486,-88.4185,1.12,31.9,1111122 
NERRS,ioos:station:NOAA.NERRS:gndpcwq:1,2014-11-07T14:00:00Z,30.3486,-88.4185,1.15,31.8,1111122 
NERRS,ioos:station:NOAA.NERRS:gndpcwq:1,2014-11-07T15:00:00Z,30.3486,-88.4185,1.2,31.9,1111122 
NERRS,ioos:station:NOAA.NERRS:gndpcwq:1,2014-11-07T16:00:00Z,30.3486,-88.4185,1.22,31.7,1111122 
NERRS,ioos:station:NOAA.NERRS:gndpcwq:1,2014-11-07T17:00:00Z,30.3486,-88.4185,1.28,31.7,1111122 
NERRS,ioos:station:NOAA.NERRS:gndpcwq:1,2014-11-07T18:00:00Z,30.3486,-88.4185,1.35,31.6,1111122 
NERRS,ioos:station:NOAA.NERRS:gndpcwq:1,2014-11-07T19:00:00Z,30.3486,-88.4185,1.42,31.6,1111122 
NERRS,ioos:station:NOAA.NERRS:gndpcwq:1,2014-11-07T20:00:00Z,30.3486,-88.4185,1.46,31.6,1111122 
NERRS,ioos:station:NOAA.NERRS:gndpcwq:1,2014-11-07T21:00:00Z,30.3486,-88.4185,1.5,31.6,1111122 
NERRS,ioos:station:NOAA.NERRS:gndpcwq:1,2014-11-07T22:00:00Z,30.3486,-88.4185,1.53,31.6,1111122 
NERRS,ioos:station:NOAA.NERRS:gndpcwq:1,2014-11-07T23:00:00Z,30.3486,-88.4185,1.58,31.6,1111122 
NERRS,ioos:station:NOAA.NERRS:gndpcwq:1,2014-11-08T00:00:00Z,30.3486,-88.4185,1.61,31.6,1111122 
NERRS,ioos:station:NOAA.NERRS:gndpcwq:1,2014-11-08T01:00:00Z,30.3486,-88.4185,1.66,31.7,1111122 
NERRS,ioos:station:NOAA.NERRS:gndpcwq:1,2014-11-08T02:00:00Z,30.3486,-88.4185,1.69,31.7,1111122 
NERRS,ioos:station:NOAA.NERRS:gndpcwq:1,2014-11-08T03:00:00Z,30.3486,-88.4185,1.72,31.7,1111122 
NERRS,ioos:station:NOAA.NERRS:gndpcwq:1,2014-11-08T04:00:00Z,30.3486,-88.4185,1.7,31.7,1111122 
NERRS,ioos:station:NOAA.NERRS:gndpcwq:1,2014-11-08T05:00:00Z,30.3486,-88.4185,1.66,31.6,1111122 
NERRS,ioos:station:NOAA.NERRS:gndpcwq:1,2014-11-08T06:00:00Z,30.3486,-88.4185,1.6,31.6,1111122 
NERRS,ioos:station:NOAA.NERRS:gndpcwq:1,2014-11-08T07:00:00Z,30.3486,-88.4185,1.54,31.5,1111122 
NERRS,ioos:station:NOAA.NERRS:gndpcwq:1,2014-11-08T08:00:00Z,30.3486,-88.4185,1.45,31.5,1111122 
NERRS,ioos:station:NOAA.NERRS:gndpcwq:1,2014-11-08T09:00:00Z,30.3486,-88.4185,1.36,31.6,1111122 
NERRS,ioos:station:NOAA.NERRS:gndpcwq:1,2014-11-08T10:00:00Z,30.3486,-88.4185,1.26,31.6,1111122 
NERRS,ioos:station:NOAA.NERRS:gndpcwq:1,2014-11-08T11:00:00Z,30.3486,-88.4185,1.19,31.7,1111122 
NERRS,ioos:station:NOAA.NERRS:gndpcwq:1,2014-11-08T12:00:00Z,30.3486,-88.4185,1.12,31.8,1111122 
NERRS,ioos:station:NOAA.NERRS:gndpcwq:1,2014-11-08T13:00:00Z,30.3486,-88.4185,1.12,31.9,1111122 
NERRS,ioos:station:NOAA.NERRS:gndpcwq:1,2014-11-08T14:00:00Z,30.3486,-88.4185,1.13,31.9,1111122 
NERRS,ioos:station:NOAA.NERRS:gndpcwq:1,2014-11-08T15:00:00Z,30.3486,-88.4185,1.15,31.9,1111122 
NERRS,ioos:station:NOAA.NERRS:gndpcwq:1,2014-11-08T16:00:00Z,30.3486,-88.4185,1.16,31.9,1111122 
NERRS,ioos:station:NOAA.NERRS:gndpcwq:1,2014-11-08T17:00:00Z,30.3486,-88.4185,1.2,31.9,1111122 
NERRS,ioos:station:NOAA.NERRS:gndpcwq:1,2014-11-08T18:00:00Z,30.3486,-88.4185,1.24,31.9,1111122 
NERRS,ioos:station:NOAA.NERRS:gndpcwq:1,2014-11-08T19:00:00Z,30.3486,-88.4185,1.31,31.9,1111122 
NERRS,ioos:station:NOAA.NERRS:gndpcwq:1,2014-11-08T20:00:00Z,30.3486,-88.4185,1.35,31.8,1111122 
NERRS,ioos:station:NOAA.NERRS:gndpcwq:1,2014-11-08T21:00:00Z,30.3486,-88.4185,1.41,31.8,1111122 
NERRS,ioos:station:NOAA.NERRS:gndpcwq:1,2014-11-08T22:00:00Z,30.3486,-88.4185,1.44,31.7,1111122 
NERRS,ioos:station:NOAA.NERRS:gndpcwq:1,2014-11-08T23:00:00Z,30.3486,-88.4185,1.5,31.7,1111122 
NERRS,ioos:station:NOAA.NERRS:gndpcwq:1,2014-11-09T00:00:00Z,30.3486,-88.4185,1.54,31.8,1111122 
NERRS,ioos:station:NOAA.NERRS:gndpcwq:1,2014-11-09T01:00:00Z,30.3486,-88.4185,1.6,31.9,1111122 
NERRS,ioos:station:NOAA.NERRS:gndpcwq:1,2014-11-09T02:00:00Z,30.3486,-88.4185,1.67,31.9,1111122 
NERRS,ioos:station:NOAA.NERRS:gndpcwq:1,2014-11-09T03:00:00Z,30.3486,-88.4185,1.73,31.9,1111122 
NERRS,ioos:station:NOAA.NERRS:gndpcwq:1,2014-11-09T04:00:00Z,30.3486,-88.4185,1.74,31.9,1111122 
NERRS,ioos:station:NOAA.NERRS:gndpcwq:1,2014-11-09T05:00:00Z,30.3486,-88.4185,1.7,31.9,1111122 
NERRS,ioos:station:NOAA.NERRS:gndpcwq:1,2014-11-09T05:45:00Z,30.3486,-88.4185,1.64,31.8,1111122 
NERRS,ioos:station:NOAA.NERRS:gndpcwq:1,2014-11-09T07:00:00Z,30.3486,-88.4185,1.56,31.6,1111122 
NERRS,ioos:station:NOAA.NERRS:gndpcwq:1,2014-11-09T08:00:00Z,30.3486,-88.4185,1.5,31.6,1111122 
NERRS,ioos:station:NOAA.NERRS:gndpcwq:1,2014-11-09T09:00:00Z,30.3486,-88.4185,1.43,31.6,1111122 
NERRS,ioos:station:NOAA.NERRS:gndpcwq:1,2014-11-09T10:00:00Z,30.3486,-88.4185,1.32,31.7,1111122 
NERRS,ioos:station:NOAA.NERRS:gndpcwq:1,2014-11-09T11:00:00Z,30.3486,-88.4185,1.23,31.7,1111122 
NERRS,ioos:station:NOAA.NERRS:gndpcwq:1,2014-11-09T12:00:00Z,30.3486,-88.4185,1.16,31.8,1111122 
NERRS,ioos:station:NOAA.NERRS:gndpcwq:1,2014-11-09T13:00:00Z,30.3486,-88.4185,1.13,31.8,1111122 
NERRS,ioos:station:NOAA.NERRS:gndpcwq:1,2014-11-09T14:00:00Z,30.3486,-88.4185,1.12,31.8,1111122 
NERRS,ioos:station:NOAA.NERRS:gndpcwq:1,2014-11-09T15:00:00Z,30.3486,-88.4185,1.16,31.9,1111122 
NERRS,ioos:station:NOAA.NERRS:gndpcwq:1,2014-11-09T16:00:00Z,30.3486,-88.4185,1.21,31.9,1111122 
NERRS,ioos:station:NOAA.NERRS:gndpcwq:1,2014-11-09T17:00:00Z,30.3486,-88.4185,1.25,31.8,1111122 
NERRS,ioos:station:NOAA.NERRS:gndpcwq:1,2014-11-09T18:00:00Z,30.3486,-88.4185,1.27,31.8,1111122 
NERRS,ioos:station:NOAA.NERRS:gndpcwq:1,2014-11-09T19:00:00Z,30.3486,-88.4185,1.3,31.8,1111122 
NERRS,ioos:station:NOAA.NERRS:gndpcwq:1,2014-11-09T20:00:00Z,30.3486,-88.4185,1.33,31.8,1111122 
NERRS,ioos:station:NOAA.NERRS:gndpcwq:1,2014-11-09T21:00:00Z,30.3486,-88.4185,1.39,31.7,1111122 
NERRS,ioos:station:NOAA.NERRS:gndpcwq:1,2014-11-09T22:00:00Z,30.3486,-88.4185,1.43,31.7,1111122 
NERRS,ioos:station:NOAA.NERRS:gndpcwq:1,2014-11-09T23:00:00Z,30.3486,-88.4185,1.47,31.7,1111122 
NERRS,ioos:station:NOAA.NERRS:gndpcwq:1,2014-11-10T00:00:00Z,30.3486,-88.4185,1.5,31.7,1111122 
NERRS,ioos:station:NOAA.NERRS:gndpcwq:1,2014-11-10T01:00:00Z,30.3486,-88.4185,1.54,31.7,1111122 
NERRS,ioos:station:NOAA.NERRS:gndpcwq:1,2014-11-10T02:00:00Z,30.3486,-88.4185,1.58,31.7,1111122 
NERRS,ioos:station:NOAA.NERRS:gndpcwq:1,2014-11-10T03:00:00Z,30.3486,-88.4185,1.61,31.7,1111122 
NERRS,ioos:station:NOAA.NERRS:gndpcwq:1,2014-11-10T04:00:00Z,30.3486,-88.4185,1.63,31.7,1111122 
NERRS,ioos:station:NOAA.NERRS:gndpcwq:1,2014-11-10T05:00:00Z,30.3486,-88.4185,1.59,31.7,1111122 
NERRS,ioos:station:NOAA.NERRS:gndpcwq:1,2014-11-10T06:00:00Z,30.3486,-88.4185,1.56,31.7,1111122 
NERRS,ioos:station:NOAA.NERRS:gndpcwq:1,2014-11-10T07:00:00Z,30.3486,-88.4185,1.51,31.7,1111122 
NERRS,ioos:station:NOAA.NERRS:gndpcwq:1,2014-11-10T08:00:00Z,30.3486,-88.4185,1.47,31.7,1111122 
NERRS,ioos:station:NOAA.NERRS:gndpcwq:1,2014-11-10T09:00:00Z,30.3486,-88.4185,1.42,31.7,1111122 
NERRS,ioos:station:NOAA.NERRS:gndpcwq:1,2014-11-10T10:00:00Z,30.3486,-88.4185,1.33,31.8,1111122 
NERRS,ioos:station:NOAA.NERRS:gndpcwq:1,2014-11-10T11:00:00Z,30.3486,-88.4185,1.24,31.8,1111122 
NERRS,ioos:station:NOAA.NERRS:gndpcwq:1,2014-11-10T12:00:00Z,30.3486,-88.4185,1.17,31.8,1111122 
NERRS,ioos:station:NOAA.NERRS:gndpcwq:1,2014-11-10T13:00:00Z,30.3486,-88.4185,1.13,31.8,1111122 
NERRS,ioos:station:NOAA.NERRS:gndpcwq:1,2014-11-10T14:00:00Z,30.3486,-88.4185,1.13,31.9,1111122 
NERRS,ioos:station:NOAA.NERRS:gndpcwq:1,2014-11-10T15:00:00Z,30.3486,-88.4185,1.14,31.9,1111122 
NERRS,ioos:station:NOAA.NERRS:gndpcwq:1,2014-11-10T16:00:00Z,30.3486,-88.4185,1.16,31.9,1111122 
NERRS,ioos:station:NOAA.NERRS:gndpcwq:1,2014-11-10T17:00:00Z,30.3486,-88.4185,1.16,31.9,1111122 
NERRS,ioos:station:NOAA.NERRS:gndpcwq:1,2014-11-10T18:00:00Z,30.3486,-88.4185,1.19,32.0,1111122 
NERRS,ioos:station:NOAA.NERRS:gndpcwq:1,2014-11-10T19:00:00Z,30.3486,-88.4185,1.23,32.0,1111122 
NERRS,ioos:station:NOAA.NERRS:gndpcwq:1,2014-11-10T20:00:00Z,30.3486,-88.4185,0.91,499.2,1111122 
NERRS,ioos:station:NOAA.NERRS:gndpcwq:1,2014-11-10T21:00:00Z,30.3486,-88.4185,1.35,984.6,1111122 
NERRS,ioos:station:NOAA.NERRS:gndpcwq:1,2014-11-11T23:00:00Z,30.3486,-88.4185,1.44,932.6,1111122 
NERRS,ioos:station:NOAA.NERRS:gndpcwq:1,2014-11-12T01:00:00Z,30.3486,-88.4185,1.57,949.2,1111122 
NERRS,ioos:station:NOAA.NERRS:gndpcwq:1,2014-11-12T23:00:00Z,30.3486,-88.4185,1.33,29.8,1111122 
NERRS,ioos:station:NOAA.NERRS:gndpcwq:1,2014-11-13T00:00:00Z,30.3486,-88.4185,1.36,29.8,1111122 
NERRS,ioos:station:NOAA.NERRS:gndpcwq:1,2014-11-13T01:00:00Z,30.3486,-88.4185,1.38,29.7,1111122 
NERRS,ioos:station:NOAA.NERRS:gndpcwq:1,2014-11-13T02:00:00Z,30.3486,-88.4185,1.44,29.6,1111122 
NERRS,ioos:station:NOAA.NERRS:gndpcwq:1,2014-11-13T03:00:00Z,30.3486,-88.4185,1.42,29.6,1111122 
NERRS,ioos:station:NOAA.NERRS:gndpcwq:1,2014-11-13T04:00:00Z,30.3486,-88.4185,1.47,29.7,1111122 